Regional Weather Roundup
Issued by NWS

Home | Current Version | Previous Version | Graphics & Text | Print | Product List | Glossary On
Versions: 1 2 3 4 5 6 7 8 9 10 11 12 13 14 15 16 17 18 19 20 21 22 23 24 25 26 27 28 29 30 31 32 33 34 35 36 37 38 39 40 41 42 43 44 45 46 47 48 49 50
000
ASUS43 KDMX 101101
RWRIA

WEATHER ROUNDUP FOR IOWA
NATIONAL WEATHER SERVICE DES MOINES IA
500 AM CST SUN DEC 10 2017

NOTE: "FAIR" INDICATES FEW OR NO CLOUDS BELOW 12,000 FEET WITH NO
SIGNIFICANT WEATHER AND/OR OBSTRUCTIONS TO VISIBILITY.

* - THESE STATIONS ARE NOT NWS STATIONS...THUS NOT UNDER NWS
QUALITY CONTROL.  THEY ALSO DO NOT REPORT WEATHER SUCH
AS PRECIPITATION OR FOG.

IAZ001>003-012>014-020>022-031>034-043>046-101200-
   NORTHWEST IOWA

CITY           SKY/WX    TMP DP  RH WIND       PRES   REMARKS
CARROLL *      CLEAR     32  23  69 W13       29.94R WCI  22
CHEROKEE *     CLEAR     32  26  79 NW7       29.97R WCI  26
DENISON *      CLEAR     30  23  74 W5        29.99R WCI  25
LE MARS *      CLEAR     34  27  75 NW12      29.99R WCI  25
ORANGE CITY *  CLEAR     30  28  93 NW13      29.96R WCI  20
SHELDON *      CLEAR     30  25  80 NW10      29.93S WCI  21
SIOUX CITY     CLEAR     39  26  59 NW18      29.98R WCI  30
SPENCER        CLOUDY    29  23  78 NW16      29.92R WCI  17
STORM LAKE *   CLEAR     27  23  86 NW13      29.94R WCI  16
$$

IAZ055>058-069>071-079>083-090>094-101200-
   SOUTHWEST IOWA

CITY           SKY/WX    TMP DP  RH WIND       PRES   REMARKS
ATLANTIC *     CLEAR     32  23  69 W8        29.97R WCI  25
AUDUBON *      CLEAR     30  23  74 NW7       29.96R WCI  23
CLARINDA *     CLOUDY    25  21  86 CALM        N/A
COUNCIL BLFS * CLEAR     36  23  60 NW10      29.99S WCI  28
CRESTON *      CLEAR     27  21  80 W9        29.97R WCI  17
HARLAN  *      CLEAR     28  23  80 NW8       30.01R WCI  20
LAMONI         CLEAR     28  19  69 W10       29.97R WCI  19
RED OAK *      CLOUDY    28  21  74 W8        30.00R WCI  20
SHENANDOAH *   CLOUDY    28  21  74 SW8       30.02R WCI  20
$$

IAZ047>049-059>061-072>074-084-101200-
   CENTRAL IOWA

CITY           SKY/WX    TMP DP  RH WIND       PRES   REMARKS
AMES           CLEAR     28  22  78 W12       29.90F WCI  18
ANKENY *       CLEAR     30  21  69 W10       29.92F WCI  21
BOONE *        CLEAR     30  21  69 W17G23    29.90R WCI  18
CHARITON *     CLEAR     27  19  74 SW9G16    29.94S WCI  17
DES MOINES     MOCLDY    30  21  69 W8        29.92F WCI  22
GRINNELL*      CLOUDY    24  19  80 SW15      29.89F WCI  12
KNOXVILLE *    CLOUDY    28  19  69 W13       29.91F WCI  18
MARSHALLTOWN   CLOUDY    22  18  85 W9        29.87F WCI  12
NEWTON *       CLOUDY    23  19  86 SW10      29.90F WCI  12
PELLA *        CLOUDY    28  20  71 SW9       29.93F WCI  20
$$

IAZ004>006-015-016-023>025-035-036-101200-
   NORTH CENTRAL IOWA

CITY           SKY/WX    TMP DP  RH WIND       PRES   REMARKS
ALGONA *       CLOUDY    30  25  80 NW13G18   29.88S WCI  20
CLARION *      CLOUDY    27  23  86 W13       29.89R WCI  16
ESTHERVILLE    CLOUDY    30  25  81 NW14      29.89R WCI  19
FORT DODGE *   CLOUDY    30  23  75 NW9       29.92R WCI  22
MASON CITY     CLOUDY    23  18  81 W13       29.86R WCI  11
FOREST CITY *    N/A     30  25  80 NW13G20   29.84F WCI  20
WEBSTER CITY * CLEAR     28  21  74 W15       29.89R WCI  17
IOWA FALLS *     N/A     26  21  79 W12       29.88S WCI  16
$$

IAZ007>011-017>019-026>030-037>042-050>054-066-101200-
   NORTHEAST IOWA

CITY           SKY/WX    TMP DP  RH WIND       PRES   REMARKS
CEDAR RAPIDS   CLEAR     22  16  78 SW15G22   29.87F WCI   9
CHARLES CITY * CLOUDY    21  19  93 W8        29.84S WCI  12
CLINTON *      CLEAR     22  16  78 S9        29.91F WCI  12
DECORAH *      CLEAR     21  18  86 VRB6      29.81F WCI  14
DUBUQUE        CLEAR     20  15  81 SW13      29.84F WCI   7
MONTICELLO *   CLEAR     21  16  79 SW7       29.88R WCI  13
OELWEIN *      CLOUDY    19  18  93 SW8       29.85F WCI   9
WATERLOO       CLEAR     22  17  81 SW12      29.86F WCI  10
$$

IAZ064-065-067-068-078-101200-
   EAST CENTRAL IOWA

CITY           SKY/WX    TMP DP  RH WIND       PRES   REMARKS
DAVENPORT      CLEAR     24  15  68 S15       29.93F WCI  11
IOWA CITY      CLEAR     24  16  71 S10       29.93F WCI  14
MT. PLEASANT * CLEAR     22  15  75 S15       29.95F WCI   9
MUSCATINE *    CLEAR     23  16  74 S9        29.95F WCI  13
QUAD CITIES    CLEAR     25  16  68 SW12G21   29.92F WCI  14
$$

IAZ062-063-075>077-085>089-095>099-101200-
   SOUTHEAST IOWA

CITY           SKY/WX    TMP DP  RH WIND       PRES   REMARKS
BURLINGTON     CLEAR     23  17  78 S14       29.97F WCI  11
FAIRFIELD *    CLEAR     23  16  74 S12       29.93F WCI  12
FORT MADISON * CLEAR     25  18  74 S17       29.97F WCI  11
KEOKUK *       CLEAR     23  18  80 SW12      29.99F WCI  12
OSKALOOSA *      N/A     23  18  81 SW9       29.93F WCI  13
OTTUMWA        CLOUDY    26  17  68 SW12      29.93F WCI  16
WASHINGTON *   CLEAR     23  18  80 S14       29.94F WCI  11
$$

ABBREVIATIONS USED IN REMARKS
   TC - TEMPERATURES IN CELSIUS
  WCI - WIND CHILL INDEX
   HX - HEAT INDEX
  VSB - VISIBILITY
$$





USA.gov is the U.S. government's official web portal to all federal, state and local government web resources and services.